• Join FlightAware (Why Join?)
  • Login
  • US Flag 
12:00AM EDT


 

Airport Tracker/Info


-or-


 

Live Flight TrackerFlight Track Log ✈ N717AN ✈ 03-May-2013 ✈ EGLL / LHR - KDFW

Flight Track Log - Related Links

Times and Time Zones

All times are in EDT time to prevent confusion due to time zone crossing. See the N717AN flight status page for this flight to view local times or setup timezone preferences in your user account.

Time Position Orientation Groundspeed Altitude Reporting Facility
EDT Latitude Longitude Course Direction KTS MPH feet Rate Location/Type
04:46AM 51.4770 -0.4900 268° West 182 209 500  Level FlightAware
04:46AM 51.4749 -0.5291 265° West 185 213 1,800 2,820 Climbing FlightAware ADS-B
04:46AM 51.4728 -0.5434 257° West 187 215 2,100 2,040 Climbing FlightAware ADS-B
04:46AM 51.4700 -0.5639 258° West 186 214 2,700 2,280 Climbing FlightAware ADS-B
04:47AM 51.4671 -0.5845 257° West 188 216 3,300 1,740 Climbing FlightAware ADS-B
04:47AM 51.4638 -0.6072 257° West 204 235 3,600 900 Climbing FlightAware ADS-B
04:47AM 51.4603 -0.6321 257° West 223 257 3,800 960 Climbing FlightAware ADS-B
04:47AM 51.4565 -0.6584 257° West 245 282 4,100 1,320 Climbing FlightAware ADS-B
04:48AM 51.4551 -0.6707 260° West 249 287 4,300 1,980 Climbing FlightAware ADS-B
04:48AM 51.4543 -0.6816 263° West 253 291 4,500 1,800 Climbing FlightAware ADS-B
04:48AM 51.4540 -0.6911 267° West 256 295 4,600 2,160 Climbing FlightAware ADS-B
04:48AM 51.4537 -0.7177 269° West 259 298 5,200 2,160 Climbing FlightAware ADS-B
04:48AM 51.4538 -0.7474 270° West 257 296 5,700 1,140 Climbing FlightAware ADS-B
04:48AM 51.4539 -0.7770 270° West 260 299 5,800 180 Climbing FlightAware ADS-B
04:49AM 51.4536 -0.8058 269° West 260 299 5,800  Level FlightAware ADS-B
04:49AM 51.4534 -0.8275 269° West 261 300 5,800 420 Level FlightAware ADS-B
04:49AM 51.4532 -0.8577 269° West 258 297 6,000 1,200 Climbing FlightAware ADS-B
04:49AM 51.4534 -0.8834 271° West 265 305 6,400 2,100 Climbing FlightAware ADS-B
04:49AM 51.4542 -0.8967 276° West 266 306 6,700 2,460 Climbing FlightAware ADS-B
04:50AM 51.4553 -0.9070 280° West 266 306 6,900 2,100 Climbing FlightAware ADS-B
04:50AM 51.4576 -0.9227 283° West 270 311 7,200 2,160 Climbing FlightAware ADS-B
04:50AM 51.4618 -0.9450 287° West 276 318 7,600 1,500 Climbing FlightAware ADS-B
04:50AM 51.4680 -0.9756 288° West 291 335 7,900 1,140 Climbing FlightAware ADS-B
04:50AM 51.4746 -1.0093 288° West 308 354 8,200 1,080 Climbing FlightAware ADS-B
04:51AM 51.4826 -1.0494 288° West 326 375 8,500 1,020 Climbing FlightAware ADS-B
04:51AM 51.4902 -1.0868 288° West 342 394 8,800 1,500 Climbing FlightAware ADS-B
04:51AM 51.4975 -1.1231 288° West 350 403 9,300 2,520 Climbing FlightAware ADS-B
04:52AM 51.5121 -1.1991 287° West 353 406 10,700 2,640 Climbing FlightAware ADS-B
04:52AM 51.5273 -1.2758 288° West 361 415 12,000 2,640 Climbing FlightAware ADS-B
04:53AM 51.5395 -1.3370 288° West 367 422 13,100 2,760 Climbing FlightAware ADS-B
04:53AM 51.5444 -1.3583 290° West 369 425 13,500 -1,200 Climbing FlightAware ADS-B
04:53AM 51.5549 -1.4007 290° West 388 447 12,600 1,980 Descending FlightAware UK
04:53AM 51.5666 -1.4451 290° West 385 443 14,600 4,320 Climbing FlightAware ADS-B
04:54AM 51.5868 -1.5258 292° West 389 448 16,000 2,580 Climbing FlightAware ADS-B
04:54AM 51.6071 -1.6074 292° West 397 457 17,200 720 Climbing FlightAware ADS-B
04:55AM 51.6196 -1.6581 292° West 406 467 16,600 2,880 Descending FlightAware UK
04:55AM 51.6280 -1.6916 292° West 397 457 18,700 1,980 Climbing FlightAware ADS-B
04:55AM 51.6439 -1.7573 292° West 418 481 17,800 1,860 Descending FlightAware UK
04:55AM 51.6494 -1.7805 292° West 407 468 19,700 3,360 Climbing FlightAware ADS-B
04:56AM 51.6710 -1.8680 292° West 415 478 20,000 -1,500 Climbing FlightAware ADS-B
04:56AM 51.6858 -1.9282 292° West 424 488 18,400  Descending FlightAware UK
04:56AM 51.6930 -1.9578 292° West 416 479 20,000 180 Climbing FlightAware ADS-B
04:57AM 51.7069 -2.0144 292° West 426 490 18,500  Descending FlightAware UK
04:57AM 51.7150 -2.0475 292° West 414 476 20,000 1,920 Climbing FlightAware ADS-B
04:58AM 51.7392 -2.1470 291° West 414 476 20,000 -1,380 Level FlightAware ADS-B
04:58AM 51.7614 -2.2373 291° West 426 490 18,500  Descending FlightAware UK
04:58AM 51.7681 -2.2649 291° West 414 476 20,000 2,460 Climbing FlightAware ADS-B
04:59AM 51.7860 -2.3368 292° West 413 475 20,000 900 Level FlightAware ADS-B
04:59AM 51.8082 -2.4355 290° West 419 482 20,900 1,980 Climbing FlightAware ADS-B
05:00AM 51.8177 -2.4959 284° West 418 481 21,800 -180 Climbing FlightAware ADS-B
05:00AM 51.8262 -2.5540 284° West 432 497 20,800 1,740 Descending FlightAware UK
05:00AM 51.8307 -2.5892 284° West 425 489 22,700 1,560 Climbing FlightAware ADS-B
05:00AM 51.8380 -2.6475 284° West 442 509 21,600 1,560 Descending FlightAware UK
05:01AM 51.8420 -2.6840 284° West 429 494 23,500 3,360 Climbing FlightAware ADS-B
05:01AM 51.8550 -2.7980 281° West 440 506 24,600 1,800 Climbing FlightAware
05:02AM 51.8654 -2.8835 281° West 436 502 25,400 -360 Climbing FlightAware ADS-B
05:02AM 51.8716 -2.9365 281° West 462 532 24,400 -900 Descending FlightAware UK
05:02AM 51.8785 -2.9951 281° West 464 534 24,900 1,620 Climbing FlightAware UK
05:02AM 51.8853 -3.0540 281° West 466 536 25,400 5,280 Climbing FlightAware UK
05:03AM 51.8870 -3.0720 281° West 449 517 27,100 1,560 Climbing FlightAware
05:03AM 51.8969 -3.1530 281° West 470 541 26,200 -900 Descending FlightAware UK
05:03AM 51.9040 -3.2133 281° West 474 545 26,500 5,160 Climbing FlightAware UK
05:03AM 51.9040 -3.2170 281° West 458 527 28,100 1,500 Climbing FlightAware
05:04AM 51.9138 -3.2943 281° West 478 550 27,100 1,320 Descending FlightAware UK
05:04AM 51.9200 -3.3500 281° West 465 535 29,000 1,560 Climbing FlightAware
05:04AM 51.9303 -3.4373 281° West 482 555 28,200 1,560 Descending FlightAware UK
05:05AM 51.9390 -3.5120 281° West 469 540 30,200 2,760 Climbing FlightAware
05:05AM 51.9550 -3.6480 281° West 470 541 31,100 120 Climbing FlightAware
05:06AM 51.9657 -3.7476 281° West 490 564 30,400 1,320 Descending FlightAware UK
05:06AM 51.9700 -3.7770 281° West 465 535 32,000  Climbing FlightAware
05:06AM 51.9834 -3.8693 281° West 490 564 30,400  Descending FlightAware UK
05:07AM 51.9873 -3.8979 281° West 465 535 32,000  Climbing FlightAware ADS-B
05:07AM 51.9973 -3.9705 281° West 488 562 30,400 -2,340 Descending FlightAware UK
05:07AM 52.0052 -4.0306 282° West 488 562 30,500 3,000 Climbing FlightAware UK
05:07AM 52.0090 -4.0630 282° West 461 531 32,000  Climbing FlightAware
05:08AM 52.0209 -4.1531 282° West 488 562 30,500 -2,340 Descending FlightAware UK
05:08AM 52.0285 -4.2133 282° West 488 562 30,500 2,700 Level FlightAware UK
05:08AM 52.0330 -4.2480 282° West 461 531 32,000  Climbing FlightAware
05:09AM 52.0539 -4.4165 282° West 488 562 30,500  Descending FlightAware UK
05:09AM 52.0510 -4.3920 282° West 462 532 32,000  Climbing FlightAware
05:09AM 52.0614 -4.4776 282° West 488 562 30,500 -2,580 Descending FlightAware UK
05:10AM 52.0690 -4.5386 281° West 488 562 30,500 3,180 Level FlightAware UK
05:10AM 52.0710 -4.5520 281° West 462 532 32,000  Climbing FlightAware
05:10AM 52.0814 -4.6405 281° West 486 559 30,500 -2,400 Descending FlightAware UK
05:11AM 52.0890 -4.7017 281° West 486 559 30,500 4,500 Level FlightAware UK
05:11AM 52.0880 -4.6940 281° West 462 532 32,000  Climbing FlightAware
05:11AM 52.0965 -4.7629 281° West 488 562 30,500 -2,700 Descending FlightAware UK
05:11AM 52.1039 -4.8242 281° West 488 562 30,500 3,060 Level FlightAware UK
05:11AM 52.1050 -4.8370 281° West 462 532 32,000  Climbing FlightAware
05:12AM 52.1161 -4.9258 281° West 490 564 30,500 -2,460 Descending FlightAware UK
05:12AM 52.1234 -4.9868 281° West 488 562 30,500 4,260 Level FlightAware UK
05:12AM 52.1220 -4.9780 281° West 460 529 32,000  Climbing FlightAware
05:12AM 52.1307 -5.0478 281° West 488 562 30,500 -2,760 Descending FlightAware UK
05:13AM 52.1384 -5.1085 282° West 488 562 30,500 3,600 Level FlightAware UK
05:13AM 52.1400 -5.1150 282° West 459 528 32,000  Climbing FlightAware
05:13AM 52.1495 -5.1889 282° West 488 562 30,500 -2,580 Descending FlightAware UK
05:13AM 52.1578 -5.2494 283° West 488 562 30,500 3,900 Level FlightAware UK
05:13AM 52.1570 -5.2450 283° West 459 528 32,000  Climbing FlightAware
05:14AM 52.1686 -5.3304 283° West 490 564 30,500 -2,460 Descending FlightAware UK
05:14AM 52.1764 -5.3912 282° West 490 564 30,500 3,420 Level FlightAware UK
05:14AM 52.1780 -5.4080 282° West 456 525 32,000  Climbing FlightAware
05:14AM 52.1893 -5.4921 282° West 490 564 30,500 -2,280 Descending FlightAware UK
05:15AM 52.1968 -5.5522 281° West 488 562 30,500 4,980 Level FlightAware UK
05:15AM 52.1960 -5.5460 281° West 453 521 32,000  Climbing FlightAware
05:15AM 52.2043 -5.6122 281° West 488 562 30,500 -2,520 Descending FlightAware UK
05:15AM 52.2119 -5.6722 282° West 488 562 30,500 3,300 Level FlightAware UK
05:15AM 52.2140 -5.6920 282° West 453 521 32,000  Climbing FlightAware
05:16AM 52.2219 -5.7521 282° West 488 562 30,500 -2,760 Descending FlightAware UK
05:16AM 52.2293 -5.8119 282° West 488 562 30,500 3,600 Level FlightAware UK
05:16AM 52.2310 -5.8260 282° West 452 520 32,000  Climbing FlightAware
05:16AM 52.2393 -5.8918 282° West 488 562 30,500 -2,580 Descending FlightAware UK
05:17AM 52.2467 -5.9517 281° West 488 562 30,500 3,180 Level FlightAware UK
05:17AM 52.2500 -5.9790 281° West 450 518 32,000  Climbing FlightAware
05:17AM 52.2588 -6.0509 281° West 488 562 30,500 -2,400 Descending FlightAware UK
05:18AM 52.2662 -6.1107 281° West 488 562 30,500 4,500 Level FlightAware UK
05:18AM 52.2650 -6.1050 281° West 450 518 32,000  Climbing FlightAware
05:18AM 52.2735 -6.1706 281° West 488 562 30,500 -2,700 Descending FlightAware UK
05:18AM 52.2807 -6.2305 281° West 488 562 30,500 3,720 Level FlightAware UK
05:18AM 52.2830 -6.2470 281° West 450 518 32,000  Climbing FlightAware
05:19AM 52.2903 -6.3104 281° West 488 562 30,500 -2,520 Descending FlightAware UK
05:19AM 52.2976 -6.3702 281° West 488 562 30,500 3,300 Level FlightAware UK
05:19AM 52.3000 -6.3940 281° West 451 519 32,000  Climbing FlightAware
05:19AM 52.3071 -6.4503 281° West 490 564 30,500 -2,940 Descending FlightAware UK
05:20AM 52.3142 -6.5104 281° West 488 562 30,400 -180 Descending FlightAware UK
05:20AM 52.3213 -6.5705 281° West 488 562 30,400 4,320 Level FlightAware UK
05:20AM 52.3210 -6.5650 281° West 451 519 32,000  Climbing FlightAware
05:20AM 52.3307 -6.6505 281° West 490 564 30,400 -2,400 Descending FlightAware UK
05:21AM 52.3377 -6.7105 281° West 488 562 30,500 4,800 Climbing FlightAware UK
05:21AM 52.3360 -6.7000 281° West 449 517 32,000  Climbing FlightAware
05:21AM 52.3447 -6.7703 281° West 486 559 30,500 -2,700 Descending FlightAware UK
05:21AM 52.3516 -6.8301 281° West 488 562 30,500 3,060 Level FlightAware UK
05:21AM 52.3530 -6.8470 281° West 449 517 32,000  Climbing FlightAware
05:22AM 52.3632 -6.9299 281° West 488 562 30,500 -2,460 Descending FlightAware UK
05:22AM 52.3701 -6.9898 281° West 488 562 30,500 4,260 Level FlightAware UK
05:22AM 52.3680 -6.9770 281° West 448 516 32,000  Climbing FlightAware
05:22AM 52.3768 -7.0497 281° West 488 562 30,500 -2,940 Descending FlightAware UK
05:23AM 52.3835 -7.1095 280° West 488 562 30,400 3,000 Descending FlightAware UK
05:23AM 52.3840 -7.1190 280° West 448 516 32,000 180 Climbing FlightAware
05:23AM 52.3946 -7.2085 280° West 488 562 30,500 -2,520 Descending FlightAware UK
05:23AM 52.4013 -7.2683 280° West 488 562 30,500 4,080 Level FlightAware UK
05:23AM 52.4010 -7.2670 280° West 447 514 32,000 -300 Climbing FlightAware
05:24AM 52.4102 -7.3479 280° West 488 562 30,400 -2,400 Descending FlightAware UK
05:24AM 52.4168 -7.4076 280° West 490 564 30,500 3,840 Climbing FlightAware UK
05:24AM 52.4180 -7.4240 280° West 446 513 32,000  Climbing FlightAware
05:24AM 52.4256 -7.4872 280° West 490 564 30,500 -2,580 Descending FlightAware UK
05:25AM 52.4321 -7.5468 280° West 488 562 30,500 3,900 Level FlightAware UK
05:25AM 52.4330 -7.5590 280° West 443 510 32,000  Climbing FlightAware
05:25AM 52.4407 -7.6261 280° West 488 562 30,500 -2,460 Descending FlightAware UK
05:25AM 52.4472 -7.6855 280° West 488 562 30,500 4,260 Level FlightAware UK
05:25AM 52.4470 -7.6860 280° West 443 510 32,000  Climbing FlightAware
05:26AM 52.4535 -7.7448 280° West 488 562 30,500 -2,760 Descending FlightAware UK
05:26AM 52.4598 -7.8042 280° West 488 562 30,500 3,000 Level FlightAware UK
05:26AM 52.4630 -7.8370 280° West 444 511 32,000  Climbing FlightAware
05:27AM 52.4702 -7.9031 280° West 488 562 30,500 -2,520 Descending FlightAware UK
05:27AM 52.4765 -7.9627 280° West 488 562 30,500  Level FlightAware UK
05:27AM 52.4829 -8.0222 280° West 488 562 30,500 3,720 Level FlightAware UK
05:27AM 52.4820 -8.0190 280° West 443 510 32,000  Climbing FlightAware
05:28AM 52.4912 -8.1017 280° West 488 562 30,500 -2,520 Descending FlightAware UK
05:28AM 52.4973 -8.1614 280° West 488 562 30,500  Level FlightAware UK
05:28AM 52.5033 -8.2212 279° West 488 562 30,500  Level FlightAware UK
05:28AM 52.5094 -8.2810 280° West 490 564 30,500 3,420 Level FlightAware UK
05:29AM 52.5100 -8.2880 280° West 442 509 32,000  Climbing FlightAware
05:29AM 52.5176 -8.3606 280° West 490 564 30,500 -2,700 Descending FlightAware UK
05:29AM 52.5236 -8.4195 280° West 488 562 30,500 3,720 Level FlightAware UK
05:29AM 52.5240 -8.4230 280° West 440 506 32,000  Climbing FlightAware
05:30AM 52.5317 -8.4989 280° West 488 562 30,500 -2,520 Descending FlightAware UK
05:30AM 52.5379 -8.5583 280° West 488 562 30,500 4,080 Level FlightAware UK
05:30AM 52.5370 -8.5520 280° West 440 506 32,000  Climbing FlightAware
05:30AM 52.5458 -8.6376 280° West 488 562 30,500 -2,400 Descending FlightAware UK
05:31AM 52.5516 -8.6971 279° West 488 562 30,500 3,600 Level FlightAware UK
05:31AM 52.5520 -8.7040 279° West 441 507 32,000  Climbing FlightAware
05:31AM 52.5593 -8.7765 279° West 488 562 30,500 -2,580 Descending FlightAware UK
05:31AM 52.5650 -8.8358 279° West 490 564 30,500 4,980 Level FlightAware UK
05:31AM 52.5630 -8.8150 279° West 442 509 32,000  Climbing FlightAware
05:32AM 52.5708 -8.8952 279° West 490 564 30,500 -2,520 Descending FlightAware UK
05:32AM 52.5766 -8.9547 279° West 490 564 30,500 2,760 Level FlightAware UK
05:32AM 52.5800 -8.9860 279° West 439 505 32,000 1,620 Climbing FlightAware
05:33AM 52.5930 -9.1230 279° West 437 503 32,000  Level FlightAware
05:33AM 52.6050 -9.2520 279° West 437 503 32,000  Level FlightAware
05:34AM 52.6210 -9.4290 279° West 439 505 32,000  Level FlightAware
05:35AM 52.6390 -9.6260 279° West 438 504 32,000  Level FlightAware
05:36AM 52.6510 -9.7600 278° West 438 504 32,000  Level FlightAware
05:37AM 52.6650 -9.9090 279° West 436 502 32,000  Level FlightAware
05:37AM 52.6760 -10.0430 278° West 434 499 32,000 60 Level FlightAware
05:38AM 52.6870 -10.1710 278° West 435 501 32,100 660 Climbing FlightAware
05:39AM 52.7000 -10.3160 278° West 433 498 33,000 600 Climbing FlightAware
05:39AM 52.7110 -10.4500 278° West 431 496 33,000  Level FlightAware
05:40AM 52.7230 -10.5940 278° West 429 494 33,000  Level FlightAware
05:41AM 52.7320 -10.7100 277° West 429 494 33,000  Level FlightAware
05:42AM 52.7450 -10.8750 277° West 428 493 33,000  Level FlightAware
05:42AM 52.7560 -11.0040 278° West 429 494 33,000  Level FlightAware
05:43AM 52.7660 -11.1320 277° West 428 493 33,000  Level FlightAware
05:44AM 52.7770 -11.2750 277° West 429 494 33,000  Level FlightAware
05:44AM 52.7870 -11.4190 277° West 428 493 33,000  Level FlightAware
05:45AM 52.7970 -11.5500 277° West 428 493 33,000  Level FlightAware
05:46AM 52.8050 -11.6540 277° West 428 493 33,000  Level FlightAware
05:47AM 52.8170 -11.8270 277° West 427 491 33,000  Level FlightAware
05:47AM 52.8250 -11.9420 277° West 427 491 33,000  Level FlightAware
05:48AM 52.8370 -12.1040 277° West 427 491 33,000  Level FlightAware
05:49AM 52.8460 -12.2350 277° West 429 494 33,000  Level FlightAware
05:49AM 52.8540 -12.3550 276° West 428 493 33,000  Level FlightAware
05:50AM 52.8630 -12.4960 276° West 426 490 33,000  Level FlightAware
05:51AM 52.8730 -12.6650 276° West 424 488 33,000  Level FlightAware
05:52AM 52.8820 -12.7990 276° West 422 486 33,000  Level FlightAware
05:52AM 52.8920 -12.9560 276° West 422 486 33,000  Level FlightAware
05:53AM 52.8960 -13.0540 274° West 422 486 33,000  Level FlightAware
05:54AM 52.9020 -13.1920 274° West 422 486 33,000  Level FlightAware
05:54AM 52.9070 -13.3010 274° West 422 486 33,000  Level FlightAware
05:55AM 52.9110 -13.4110 273° West 422 486 33,000  Level FlightAware
05:56AM 52.9160 -13.5210 274° West 422 486 33,000  Level FlightAware
05:56AM 52.9210 -13.6310 274° West 422 486 33,000  Level FlightAware
05:57AM 52.9250 -13.7410 273° West 422 486 33,000  Level FlightAware
05:58AM 52.9310 -13.8780 274° West 422 486 33,000  Level FlightAware
05:59AM 52.9360 -13.9880 274° West 422 486 33,000  Level FlightAware
05:59AM 52.9400 -14.0980 273° West 422 486 33,000  Level FlightAware
06:00AM 52.9450 -14.2080 274° West 422 486 33,000  Level FlightAware
06:01AM 52.9490 -14.3180 273° West 422 486 33,000  Level FlightAware
06:01AM 52.9550 -14.4550 274° West 422 486 33,000  Level FlightAware
06:02AM 52.9600 -14.5650 274° West 422 486 33,000  Level FlightAware
06:05AM 52.9533 -15.0921 273° West  Level FlightAware Approximate
06:06AM 52.9598 -15.3124 273° West  Level FlightAware Approximate
06:07AM 52.9658 -15.5328 273° West  Level FlightAware Approximate
06:08AM 52.9714 -15.7531 273° West  Level FlightAware Approximate
06:09AM 52.9766 -15.9736 272° West  Level FlightAware Approximate
06:10AM 52.9814 -16.1941 272° West  Level FlightAware Approximate
06:11AM 52.9858 -16.4147 272° West  Level FlightAware Approximate
06:12AM 52.9898 -16.6353 272° West  Level FlightAware Approximate
06:13AM 52.9934 -16.8559 272° West  Level FlightAware Approximate
06:14AM 52.9966 -17.0766 271° West  Level FlightAware Approximate
06:15AM 52.9993 -17.2973 271° West  Level FlightAware Approximate
06:16AM 53.0017 -17.5180 271° West  Level FlightAware Approximate
06:17AM 53.0036 -17.7388 271° West  Level FlightAware Approximate
06:18AM 53.0052 -17.9595 271° West  Level FlightAware Approximate
06:19AM 53.0063 -18.1803 271° West  Level FlightAware Approximate
06:20AM 53.0070 -18.4011 270° West  Level FlightAware Approximate
06:21AM 53.0073 -18.6219 270° West  Level FlightAware Approximate
06:22AM 53.0072 -18.8427 270° West  Level FlightAware Approximate
06:23AM 53.0067 -19.0635 270° West  Level FlightAware Approximate
06:24AM 53.0058 -19.2843 270° West  Level FlightAware Approximate
06:25AM 53.0045 -19.5051 270° West  Level FlightAware Approximate
06:26AM 53.0027 -19.7258 269° West  Level FlightAware Approximate
06:27AM 53.0006 -19.9466 269° West  Level FlightAware Approximate
06:27AM 53.0000 -20.0000 265° West 516 594 33,000  Level ETMS Enhanced Traffic Management System
06:28AM 52.9908 -20.1613 265° West  Level FlightAware Approximate
06:29AM 52.9783 -20.3757 265° West  Level FlightAware Approximate
06:30AM 52.9654 -20.5899 264° West  Level FlightAware Approximate
06:31AM 52.9521 -20.8040 264° West  Level FlightAware Approximate
06:32AM 52.9384 -21.0180 264° West  Level FlightAware Approximate
06:33AM 52.8952 -21.6562 263° West 516 594 33,000  Level FlightAware Transoceanic
06:34AM 52.8783 -21.8922 263° West 516 594 33,000  Level FlightAware Transoceanic
06:35AM 52.8610 -22.1279 263° West 516 594 33,000  Level FlightAware Transoceanic
06:36AM 52.8432 -22.3634 263° West 516 594 33,000  Level FlightAware Transoceanic
06:37AM 52.8250 -22.5988 263° West 516 594 33,000  Level FlightAware Transoceanic
06:38AM 52.8063 -22.8340 262° West 516 594 33,000  Level FlightAware Transoceanic
06:39AM 52.7871 -23.0689 262° West 516 594 33,000  Level FlightAware Transoceanic
06:40AM 52.7674 -23.3036 262° West 516 594 33,000  Level FlightAware Transoceanic
06:41AM 52.7473 -23.5382 262° West 516 594 33,000  Level FlightAware Transoceanic
06:42AM 52.7268 -23.7725 262° West 516 594 33,000  Level FlightAware Transoceanic
06:43AM 52.7057 -24.0065 261° West 516 594 33,000  Level FlightAware Transoceanic
06:44AM 52.6843 -24.2404 261° West 516 594 33,000  Level FlightAware Transoceanic
06:45AM 52.6623 -24.4740 261° West 516 594 33,000  Level FlightAware Transoceanic
06:46AM 52.6399 -24.7074 261° West 516 594 33,000  Level FlightAware Transoceanic
06:47AM 52.6170 -24.9405 261° West 516 594 33,000  Level FlightAware Transoceanic
06:48AM 52.5937 -25.1734 261° West 516 594 33,000  Level FlightAware Transoceanic
06:49AM 52.5699 -25.4061 260° West 516 594 33,000  Level FlightAware Transoceanic
06:50AM 52.5457 -25.6385 260° West 516 594 33,000  Level FlightAware Transoceanic
06:51AM 52.5210 -25.8706 260° West 516 594 33,000  Level FlightAware Transoceanic
06:52AM 52.4959 -26.1025 260° West 516 594 33,000  Level FlightAware Transoceanic
06:53AM 52.4703 -26.3341 260° West 516 594 33,000  Level FlightAware Transoceanic
06:54AM 52.4442 -26.5654 259° West 516 594 33,000  Level FlightAware Transoceanic
06:55AM 52.4177 -26.7964 259° West 516 594 33,000  Level FlightAware Transoceanic
06:56AM 52.3908 -27.0272 259° West 516 594 33,000  Level FlightAware Transoceanic
06:57AM 52.3634 -27.2577 259° West 516 594 33,000  Level FlightAware Transoceanic
06:58AM 52.3355 -27.4879 259° West 516 594 33,000  Level FlightAware Transoceanic
06:59AM 52.3073 -27.7178 259° West 516 594 33,000  Level FlightAware Transoceanic
07:00AM 52.2785 -27.9474 258° West 516 594 33,000  Level FlightAware Transoceanic
07:01AM 52.2493 -28.1767 258° West 516 594 33,000  Level FlightAware Transoceanic
07:02AM 52.2197 -28.4058 258° West 516 594 33,000  Level FlightAware Transoceanic
07:03AM 52.1896 -28.6345 258° West 516 594 33,000  Level FlightAware Transoceanic
07:04AM 52.1591 -28.8629 258° West 516 594 33,000  Level FlightAware Transoceanic
07:05AM 52.1282 -29.0909 257° West 516 594 33,000  Level FlightAware Transoceanic
07:06AM 52.0968 -29.3187 257° West 516 594 33,000  Level FlightAware Transoceanic
07:07AM 52.0650 -29.5461 257° West 516 594 33,000  Level FlightAware Transoceanic
07:08AM 52.0327 -29.7732 257° West 516 594 33,000  Level FlightAware Transoceanic
07:09AM 52.0031 -29.9784 257° West  Level FlightAware Approximate
07:10AM 51.9732 -30.1832 257° West  Level FlightAware Approximate
07:11AM 51.9906 -30.1658 265° West  Level FlightAware Approximate
07:12AM 51.9784 -30.3758 265° West  Level FlightAware Approximate
07:13AM 51.9658 -30.5857 265° West  Level FlightAware Approximate
07:14AM 51.9528 -30.7955 264° West  Level FlightAware Approximate
07:15AM 51.9395 -31.0051 264° West  Level FlightAware Approximate
07:16AM 51.9258 -31.2146 264° West  Level FlightAware Approximate
07:17AM 51.9117 -31.4240 264° West  Level FlightAware Approximate
07:18AM 51.8972 -31.6332 264° West  Level FlightAware Approximate
07:19AM 51.8824 -31.8423 264° West  Level FlightAware Approximate
07:20AM 51.8672 -32.0513 263° West  Level FlightAware Approximate
07:21AM 51.8516 -32.2601 263° West  Level FlightAware Approximate
07:22AM 51.8357 -32.4688 263° West  Level FlightAware Approximate
07:23AM 51.8194 -32.6773 263° West  Level FlightAware Approximate
07:24AM 51.8027 -32.8857 263° West  Level FlightAware Approximate
07:25AM 51.7857 -33.0939 263° West  Level FlightAware Approximate
07:26AM 51.7682 -33.3020 262° West  Level FlightAware Approximate
07:27AM 51.7505 -33.5099 262° West  Level FlightAware Approximate
07:28AM 51.7323 -33.7176 262° West  Level FlightAware Approximate
07:29AM 51.7138 -33.9252 262° West  Level FlightAware Approximate
07:30AM 51.6949 -34.1326 262° West  Level FlightAware Approximate
07:31AM 51.6757 -34.3398 262° West  Level FlightAware Approximate
07:32AM 51.6561 -34.5468 261° West  Level FlightAware Approximate
07:33AM 51.6361 -34.7537 261° West  Level FlightAware Approximate
07:34AM 51.6158 -34.9604 261° West  Level FlightAware Approximate
07:35AM 51.5951 -35.1669 261° West  Level FlightAware Approximate
07:36AM 51.5741 -35.3732 261° West  Level FlightAware Approximate
07:37AM 51.5526 -35.5793 261° West  Level FlightAware Approximate
07:38AM 51.5308 -35.7852 260° West  Level FlightAware Approximate
07:39AM 51.5087 -35.9909 260° West  Level FlightAware Approximate
07:40AM 51.4862 -36.1964 260° West  Level FlightAware Approximate
07:41AM 51.4633 -36.4017 260° West  Level FlightAware Approximate
07:42AM 51.4401 -36.6068 260° West  Level FlightAware Approximate
07:43AM 51.4166 -36.8117 260° West  Level FlightAware Approximate
07:44AM 51.3926 -37.0164 259° West  Level FlightAware Approximate
07:45AM 51.3684 -37.2209 259° West  Level FlightAware Approximate
07:46AM 51.3437 -37.4251 259° West  Level FlightAware Approximate
07:47AM 51.3187 -37.6291 259° West  Level FlightAware Approximate
07:48AM 51.2934 -37.8329 259° West  Level FlightAware Approximate
07:49AM 51.2677 -38.0365 259° West  Level FlightAware Approximate
07:50AM 51.2416 -38.2398 259° West  Level FlightAware Approximate
07:51AM 51.2152 -38.4429 258° West  Level FlightAware Approximate
07:52AM 51.1884 -38.6458 258° West  Level FlightAware Approximate
07:53AM 51.1613 -38.8484 258° West  Level FlightAware Approximate
07:54AM 51.1339 -39.0508 258° West  Level FlightAware Approximate
07:55AM 51.1060 -39.2534 258° West  Level FlightAware Approximate
07:56AM 51.0778 -39.4557 258° West  Level FlightAware Approximate
07:57AM 51.0493 -39.6577 257° West  Level FlightAware Approximate
07:58AM 51.0204 -39.8595 257° West  Level FlightAware Approximate
07:59AM 50.9962 -40.0624 264° West  Level FlightAware Approximate
08:00AM 50.9832 -40.2681 264° West  Level FlightAware Approximate
08:01AM 50.9700 -40.4738 264° West  Level FlightAware Approximate
08:02AM 50.9563 -40.6792 264° West  Level FlightAware Approximate
08:03AM 50.9424 -40.8846 264° West  Level FlightAware Approximate
08:04AM 50.9280 -41.0899 264° West  Level FlightAware Approximate
08:05AM 50.9133 -41.2950 264° West  Level FlightAware Approximate
08:06AM 50.8982 -41.5000 263° West  Level FlightAware Approximate
08:07AM 50.8828 -41.7049 263° West  Level FlightAware Approximate
08:08AM 50.8670 -41.9096 263° West  Level FlightAware Approximate
08:09AM 50.8509 -42.1142 263° West  Level FlightAware Approximate
08:10AM 50.8344 -42.3186 263° West  Level FlightAware Approximate
08:11AM 50.8175 -42.5229 263° West  Level FlightAware Approximate
08:12AM 50.8017 -42.7274 263° West  Level FlightAware Approximate
08:13AM 50.7856 -42.9317 263° West  Level FlightAware Approximate
08:14AM 50.7692 -43.1358 263° West  Level FlightAware Approximate
08:15AM 50.7524 -43.3399 263° West  Level FlightAware Approximate
08:16AM 50.7352 -43.5437 263° West  Level FlightAware Approximate
08:17AM 50.7177 -43.7475 262° West  Level FlightAware Approximate
08:18AM 50.6998 -43.9510 262° West  Level FlightAware Approximate
08:19AM 50.6816 -44.1544 262° West  Level FlightAware Approximate
08:20AM 50.6630 -44.3577 262° West  Level FlightAware Approximate
08:21AM 50.6441 -44.5608 262° West  Level FlightAware Approximate
08:22AM 50.6248 -44.7637 262° West  Level FlightAware Approximate
08:23AM 50.6051 -44.9665 261° West  Level FlightAware Approximate
08:24AM 50.5852 -45.1691 261° West  Level FlightAware Approximate
08:25AM 50.5648 -45.3715 261° West  Level FlightAware Approximate
08:26AM 50.5441 -45.5737 261° West  Level FlightAware Approximate
08:27AM 50.5231 -45.7758 261° West  Level FlightAware Approximate
08:28AM 50.5017 -45.9776 261° West  Level FlightAware Approximate
08:29AM 50.4800 -46.1793 260° West  Level FlightAware Approximate
08:30AM 50.4579 -46.3809 260° West  Level FlightAware Approximate
08:31AM 50.4354 -46.5822 260° West  Level FlightAware Approximate
08:32AM 50.4127 -46.7833 260° West  Level FlightAware Approximate
08:33AM 50.3895 -46.9842 260° West  Level FlightAware Approximate
08:34AM 50.3661 -47.1850 260° West  Level FlightAware Approximate
08:35AM 50.3422 -47.3855 260° West  Level FlightAware Approximate
08:36AM 50.3181 -47.5858 259° West  Level FlightAware Approximate
08:37AM 50.2936 -47.7859 259° West  Level FlightAware Approximate
08:37AM 50.0333 -49.7000 258° West 520 598 33,000  Level Gander Center
08:38AM 50.2687 -47.9859 259° West  Level FlightAware Approximate
08:38AM 50.0167 -49.9167 263° West 510 587 33,000  Level Gander Center
08:39AM 50.2435 -48.1856 259° West  Level FlightAware Approximate
08:39AM 49.9833 -50.0000 238° Southwest 510 587 33,000  Level Moncton Center
08:39AM 49.9667 -50.1333 259° West 510 587 33,000  Level Gander Center
08:40AM 50.2180 -48.3851 259° West  Level FlightAware Approximate
08:41AM 50.1921 -48.5843 259° West  Level FlightAware Approximate
08:42AM 50.1654 -48.7868 258° West  Level FlightAware Approximate
08:43AM 50.1384 -48.9891 258° West  Level FlightAware Approximate
08:45AM 49.7540 -51.4990 259° West 527 606 33,000  Level FlightAware
08:46AM 49.7270 -51.6430 254° West 527 606 33,000  Level FlightAware
08:47AM 49.6990 -51.7960 254° West 528 608 33,000  Level FlightAware
08:47AM 49.6710 -51.9470 254° West 528 608 33,000  Level FlightAware
08:48AM 49.6400 -52.1140 254° West 527 606 33,000  Level FlightAware
08:49AM 49.6120 -52.2580 253° West 527 606 33,000  Level FlightAware
08:49AM 49.5840 -52.4050 254° West 528 608 33,000  Level FlightAware
08:50AM 49.5570 -52.5490 254° West 528 608 33,000  Level FlightAware
08:51AM 49.5280 -52.6980 253° West 529 609 33,000  Level FlightAware
08:52AM 49.4970 -52.8580 253° West 528 608 33,000  Level FlightAware
08:52AM 49.4760 -52.9640 253° West 528 608 33,000  Level FlightAware
08:53AM 49.4470 -53.1080 253° West 528 608 33,000  Level FlightAware
08:53AM 49.4180 -53.2520 253° West 528 608 33,000  Level FlightAware
08:54AM 49.3860 -53.4150 253° West 529 609 33,000 120 Level FlightAware
08:55AM 49.3570 -53.5560 253° West 526 605 33,200 420 Climbing FlightAware
08:56AM 49.3290 -53.6940 253° West 524 603 33,600 420 Climbing FlightAware
08:56AM 49.3040 -53.8150 252° West 524 603 33,800 480 Climbing FlightAware
08:57AM 49.2640 -54.0080 252° West 527 606 34,300 540 Climbing FlightAware
08:58AM 49.2300 -54.1700 252° West 528 608 34,600 480 Climbing FlightAware
08:58AM 49.2010 -54.3110 253° West 526 605 35,000 300 Climbing FlightAware
08:59AM 49.1710 -54.4520 252° West 526 605 35,000  Level FlightAware
09:00AM 49.1370 -54.6090 252° West 525 604 35,000  Level FlightAware
09:00AM 49.1070 -54.7510 252° West 527 606 35,000  Level FlightAware
09:01AM 49.0720 -54.9100 251° West 525 604 35,000  Level FlightAware
09:02AM 49.0420 -55.0490 252° West 522 601 35,000  Level FlightAware
09:03AM 49.0120 -55.1880 252° West 523 602 35,000  Level FlightAware
09:03AM 48.9770 -55.3450 251° West 523 602 35,000  Level FlightAware
09:04AM 48.9460 -55.4820 251° West 522 601 35,000  Level FlightAware
09:05AM 48.9110 -55.6390 251° West 519 597 35,000  Level FlightAware
09:05AM 48.8800 -55.7770 251° West 518 596 35,000  Level FlightAware
09:06AM 48.8450 -55.9310 251° West 518 596 35,000  Level FlightAware
09:07AM 48.8130 -56.0680 251° West 519 597 35,000  Level FlightAware
09:07AM 48.7820 -56.2060 251° West 518 596 35,000  Level FlightAware
09:08AM 48.7460 -56.3600 251° West 517 595 35,000  Level FlightAware
09:09AM 48.7150 -56.4940 251° West 518 596 35,000  Level FlightAware
09:10AM 48.6800 -56.6410 250° West 517 595 35,000  Level FlightAware
09:10AM 48.6470 -56.7830 251° West 517 595 35,000  Level FlightAware
09:11AM 48.6180 -56.9040 250° West 517 595 35,000  Level FlightAware
09:12AM 48.5820 -57.0530 250° West 518 596 35,000  Level FlightAware
09:12AM 48.5530 -57.1740 250° West 518 596 35,000  Level FlightAware
09:13AM 48.5090 -57.3560 250° West 517 595 35,000  Level FlightAware
09:14AM 48.4810 -57.4680 249° West 514 592 35,000  Level FlightAware
09:14AM 48.4360 -57.6260 247° West 511 588 35,000  Level FlightAware
09:15AM 48.3960 -57.7590 246° West 508 585 35,000  Level FlightAware
09:16AM 48.3580 -57.8830 245° Southwest 506 582 35,000  Level FlightAware
09:17AM 48.3150 -58.0200 245° Southwest 506 582 35,000  Level FlightAware
09:17AM 48.2680 -58.1680 245° Southwest 506 582 35,000  Level FlightAware
09:18AM 48.2250 -58.3040 245° Southwest 509 586 35,000  Level FlightAware
09:19AM 48.1760 -58.4590 245° Southwest 508 585 35,000  Level FlightAware
09:20AM 48.1160 -58.6440 244° Southwest 507 583 35,000  Level FlightAware
09:21AM 48.0710 -58.7850 245° Southwest 505 581 35,000  Level FlightAware
09:21AM 48.0360 -58.8950 245° Southwest 502 578 35,000  Level FlightAware
09:22AM 47.9960 -59.0170 244° Southwest 502 578 35,000  Level FlightAware
09:23AM 47.9560 -59.1400 244° Southwest 502 578 35,000  Level FlightAware
09:23AM 47.9220 -59.2460 244° Southwest 502 578 35,000  Level FlightAware
09:24AM 47.8790 -59.3780 244° Southwest 502 578 35,000  Level FlightAware
09:25AM 47.8440 -59.4840 244° Southwest 502 578 35,000  Level FlightAware
09:25AM 47.8090 -59.5900 244° Southwest 502 578 35,000  Level FlightAware
09:26AM 47.7750 -59.6950 244° Southwest 502 578 35,000  Level FlightAware
09:27AM 47.7400 -59.8010 244° Southwest 502 578 35,000  Level FlightAware
09:28AM 47.6970 -59.9330 244° Southwest 502 578 35,000  Level FlightAware
09:28AM 47.6620 -60.0380 244° Southwest 502 578 35,000  Level FlightAware
09:29AM 47.6270 -60.1430 244° Southwest 502 578 35,000  Level FlightAware
09:30AM 47.5930 -60.2490 245° Southwest 502 578 35,000  Level FlightAware
09:30AM 47.5580 -60.3540 244° Southwest 502 578 35,000  Level FlightAware
09:31AM 47.5150 -60.4850 244° Southwest 502 578 35,000  Level FlightAware
09:32AM 47.4800 -60.5900 244° Southwest 502 578 35,000  Level FlightAware
09:33AM 47.3190 -61.0250 241° Southwest 505 581 35,000  Level FlightAware
09:33AM 47.2760 -61.1450 242° Southwest 505 581 35,000  Level FlightAware
09:34AM 47.2310 -61.2740 243° Southwest 504 580 35,000  Level FlightAware
09:35AM 47.1800 -61.4170 242° Southwest 506 582 35,000  Level FlightAware
09:36AM 47.1220 -61.5770 242° Southwest 508 585 35,000  Level FlightAware
09:36AM 47.0850 -61.6810 242° Southwest 508 585 35,000  Level FlightAware
09:37AM 47.0470 -61.7840 242° Southwest 508 585 35,000  Level FlightAware
09:38AM 47.0100 -61.8880 242° Southwest 508 585 35,000  Level FlightAware
09:38AM 46.9720 -61.9910 242° Southwest 508 585 35,000  Level FlightAware
09:39AM 46.9250 -62.1200 242° Southwest 508 585 35,000  Level FlightAware
09:40AM 46.8880 -62.2240 243° Southwest 508 585 35,000  Level FlightAware
09:41AM 46.8500 -62.3270 242° Southwest 508 585 35,000  Level FlightAware
09:41AM 46.8130 -62.4300 242° Southwest 508 585 35,000  Level FlightAware
09:42AM 46.7750 -62.5330 242° Southwest 508 585 35,000  Level FlightAware
09:43AM 46.7280 -62.6620 242° Southwest 508 585 35,000  Level FlightAware
09:43AM 46.6910 -62.7650 242° Southwest 508 585 35,000  Level FlightAware
09:44AM 46.6530 -62.8680 242° Southwest 508 585 35,000  Level FlightAware
09:45AM 46.6160 -62.9700 242° Southwest 508 585 35,000  Level FlightAware
09:45AM 46.4833 -63.2667 242° Southwest 500 575 35,000  Level Gander Center
09:46AM 46.4333 -63.3500 229° Southwest 500 575 35,000  Level Moncton Center
09:51AM 46.0870 -64.3200 229° Southwest 507 583 35,000  Level FlightAware
09:52AM 46.0440 -64.4280 240° Southwest 510 587 35,000  Level FlightAware
09:52AM 45.9960 -64.5480 240° Southwest 510 587 35,000  Level FlightAware
09:53AM 45.9350 -64.7020 240° Southwest 513 590 35,000  Level FlightAware
09:54AM 45.8890 -64.8170 240° Southwest 512 589 35,000  Level FlightAware
09:55AM 45.8440 -64.9270 240° Southwest 513 590 35,000  Level FlightAware
09:55AM 45.7890 -65.0630 240° Southwest 514 592 35,000  Level FlightAware
09:56AM 45.7400 -65.1830 240° Southwest 516 594 35,000  Level FlightAware
09:57AM 45.6840 -65.3180 239° Southwest 518 596 35,000  Level FlightAware
09:57AM 45.6350 -65.4360 239° Southwest 520 598 35,000  Level FlightAware
09:58AM 45.5870 -65.5540 240° Southwest 519 597 35,000  Level FlightAware
09:59AM 45.5330 -65.6830 239° Southwest 521 600 35,000  Level FlightAware
09:59AM 45.4840 -65.8020 240° Southwest 525 604 35,000  Level FlightAware
10:00AM 45.4340 -65.9210 239° Southwest 527 606 35,000  Level FlightAware
10:01AM 45.3700 -66.0710 239° Southwest 531 611 35,000  Level FlightAware
10:02AM 45.3200 -66.1910 239° Southwest 535 616 35,000  Level FlightAware
10:02AM 45.2660 -66.3160 238° Southwest 536 617 35,000  Level FlightAware
10:03AM 45.2160 -66.4340 239° Southwest 538 619 35,000  Level FlightAware
10:04AM 45.1580 -66.5680 238° Southwest 540 621 35,000  Level FlightAware
10:05AM 45.0880 -66.7320 239° Southwest 540 621 35,000  Level FlightAware
10:06AM 45.0090 -66.9130 238° Southwest 542 624 35,000  Level FlightAware
10:06AM 44.9600 -67.0250 238° Southwest 541 623 35,000  Level FlightAware
10:07AM 44.9060 -67.1560 240° Southwest 538 619 35,000  Level FlightAware
10:08AM 44.8640 -67.3010 248° West 531 611 35,000  Level FlightAware
10:08AM 44.8410 -67.4380 257° West 524 603 35,000  Level FlightAware
10:09AM 44.8210 -67.5680 258° West 522 601 35,000  Level FlightAware
10:10AM 44.7980 -67.7210 258° West 523 602 35,000  Level FlightAware
10:10AM 44.7790 -67.8470 258° West 523 602 35,000  Level FlightAware
10:11AM 44.7550 -68.0010 258° West 523 602 35,000  Level FlightAware
10:12AM 44.7340 -68.1340 258° West 524 603 35,000  Level FlightAware
10:13AM 44.7140 -68.2680 258° West 522 601 35,000  Level FlightAware
10:13AM 44.6910 -68.4110 257° West 520 598 35,000  Level FlightAware
10:14AM 44.6700 -68.5440 258° West 516 594 35,000  Level FlightAware
10:15AM 44.6470 -68.6920 258° West 513 590 35,000  Level FlightAware
10:15AM 44.6250 -68.8230 257° West 513 590 35,000  Level FlightAware
10:16AM 44.6020 -68.9660 257° West 513 590 35,000  Level FlightAware
10:17AM 44.5800 -69.0980 257° West 511 588 35,000  Level FlightAware
10:17AM 44.5620 -69.2110 257° West 512 589 35,000  Level FlightAware
10:18AM 44.5350 -69.3720 257° West 512 589 35,000  Level FlightAware
10:19AM 44.5180 -69.4760 257° West 512 589 35,000  Level FlightAware
10:20AM 44.4910 -69.6360 257° West 512 589 35,000  Level FlightAware
10:20AM 44.4670 -69.7730 256° West 512 589 35,000  Level FlightAware
10:21AM 44.4460 -69.9000 257° West 513 590 35,000  Level FlightAware
10:22AM 44.4200 -70.0460 256° West 513 590 35,000 60 Level FlightAware
10:22AM 44.3980 -70.1740 257° West 512 589 35,100 240 Climbing FlightAware
10:23AM 44.3730 -70.3170 256° West 511 588 35,400 420 Climbing FlightAware
10:24AM 44.3500 -70.4460 256° West 507 583 35,700 360 Climbing FlightAware
10:24AM 44.3270 -70.5740 256° West 504 580 35,900 180 Climbing FlightAware
10:25AM 44.3020 -70.7160 256° West 504 580 36,000 60 Climbing FlightAware
10:26AM 44.2800 -70.8380 256° West 504 580 36,000  Level FlightAware
10:27AM 44.2530 -70.9820 255° West 502 578 36,000  Level FlightAware
10:27AM 44.2300 -71.1080 256° West 502 578 36,000  Level FlightAware
10:28AM 44.2070 -71.2340 256° West 500 575 36,000  Level FlightAware
10:29AM 44.1810 -71.3720 255° West 501 577 36,000  Level FlightAware
10:29AM 44.1580 -71.4950 255° West 501 577 36,000  Level FlightAware
10:30AM 44.1310 -71.6400 256° West 499 574 36,000  Level FlightAware
10:31AM 44.1070 -71.7640 255° West 498 573 36,000  Level FlightAware
10:31AM 44.0850 -71.8800 255° West 494 568 36,000  Level FlightAware
10:32AM 44.0580 -72.0210 255° West 495 570 36,000  Level FlightAware
10:33AM 44.0340 -72.1450 255° West 495 570 36,000  Level FlightAware
10:34AM 44.0100 -72.2690 255° West 495 570 36,000  Level FlightAware
10:34AM 43.9830 -72.4050 255° West 493 567 36,000  Level FlightAware
10:35AM 43.9590 -72.5270 255° West 493 567 36,000  Level FlightAware
10:36AM 43.9320 -72.6610 254° West 494 568 36,000  Level FlightAware
10:36AM 43.9080 -72.7830 255° West 494 568 36,000  Level FlightAware
10:37AM 43.8800 -72.9190 254° West 493 567 36,000  Level FlightAware
10:38AM 43.8550 -73.0450 255° West 492 566 36,000  Level FlightAware
10:38AM 43.8300 -73.1660 254° West 491 565 36,000  Level FlightAware
10:39AM 43.8030 -73.3000 254° West 492 566 36,000  Level FlightAware
10:40AM 43.7820 -73.4020 254° West 491 565 36,000  Level FlightAware
10:41AM 43.7490 -73.5590 254° West 490 564 36,000  Level FlightAware
10:41AM 43.7240 -73.6780 254° West 489 563 36,000  Level FlightAware
10:42AM 43.6990 -73.7980 254° West 490 564 36,000  Level FlightAware
10:43AM 43.6710 -73.9300 254° West 489 563 36,000  Level FlightAware
10:43AM 43.6450 -74.0520 254° West 488 562 36,000  Level FlightAware
10:44AM 43.6200 -74.1700 254° West 488 562 36,000  Level FlightAware
10:45AM 43.5960 -74.2780 253° West 487 560 36,000  Level FlightAware
10:45AM 43.5640 -74.4240 253° West 484 557 36,000  Level FlightAware
10:46AM 43.5390 -74.5430 254° West 484 557 36,000  Level FlightAware
10:47AM 43.5100 -74.6710 253° West 484 557 36,000  Level FlightAware
10:48AM 43.4850 -74.7880 254° West 485 558 36,000  Level FlightAware
10:48AM 43.4550 -74.9240 253° West 487 560 36,000  Level FlightAware
10:49AM 43.4290 -75.0380 253° West 488 562 36,000  Level FlightAware
10:50AM 43.4020 -75.1590 253° West 487 560 36,000  Level FlightAware
10:50AM 43.3750 -75.2800 253° West 489 563 36,000  Level FlightAware
10:51AM 43.3440 -75.4130 252° West 487 560 36,000  Level FlightAware
10:52AM 43.3180 -75.5300 253° West 485 558 36,000  Level FlightAware
10:52AM 43.2900 -75.6480 252° West 485 558 36,000  Level FlightAware
10:53AM 43.2600 -75.7790 253° West 486 559 36,000  Level FlightAware
10:54AM 43.2320 -75.8990 252° West 487 560 36,000  Level FlightAware
10:55AM 43.2020 -76.0280 252° West 486 559 36,000  Level FlightAware
10:55AM 43.1750 -76.1430 252° West 483 556 36,000  Level FlightAware
10:56AM 43.1380 -76.2740 249° West 484 557 36,000  Level FlightAware
10:57AM 43.1030 -76.3870 247° West 484 557 36,000  Level FlightAware
10:57AM 43.0670 -76.4980 246° West 485 558 36,000  Level FlightAware
10:58AM 43.0270 -76.6240 247° West 485 558 36,000  Level FlightAware
10:59AM 42.9910 -76.7360 246° West 485 558 36,000  Level FlightAware
11:00AM 42.9510 -76.8600 246° West 484 557 36,000  Level FlightAware
11:00AM 42.9150 -76.9710 246° West 482 555 36,000  Level FlightAware
11:01AM 42.8790 -77.0830 246° West 481 554 36,000  Level FlightAware
11:02AM 42.8380 -77.2080 246° West 481 554 36,000  Level FlightAware
11:02AM 42.8020 -77.3180 246° West 483 556 36,000  Level FlightAware
11:03AM 42.7680 -77.4220 246° West 483 556 36,000  Level FlightAware
11:04AM 42.7250 -77.5520 246° West 482 555 36,000  Level FlightAware
11:04AM 42.6870 -77.6650 245° Southwest 482 555 36,000  Level FlightAware
11:05AM 42.6450 -77.7890 245° Southwest 482 555 36,000  Level FlightAware
11:06AM 42.6090 -77.8980 246° West 484 557 36,000  Level FlightAware
11:06AM 42.5720 -78.0080 245° Southwest 484 557 36,000  Level FlightAware
11:07AM 42.5300 -78.1330 246° West 482 555 36,000  Level FlightAware
11:08AM 42.4940 -78.2400 246° West 483 556 36,000  Level FlightAware
11:09AM 42.4510 -78.3650 245° Southwest 483 556 36,000  Level FlightAware
11:09AM 42.4130 -78.4750 245° Southwest 483 556 36,000  Level FlightAware
11:10AM 42.3750 -78.5850 245° Southwest 483 556 36,000  Level FlightAware
11:11AM 42.3350 -78.7000 245° Southwest 483 556 36,000  Level FlightAware
11:11AM 42.2950 -78.8170 245° Southwest 482 555 36,000  Level FlightAware
11:12AM 42.2540 -78.9350 245° Southwest 481 554 36,000  Level FlightAware
11:13AM 42.2140 -79.0480 244° Southwest 480 552 36,000  Level FlightAware
11:13AM 42.1800 -79.1580 247° West 480 552 36,000  Level FlightAware
11:14AM 42.1470 -79.2830 250° West 480 552 36,000  Level FlightAware
11:15AM 42.1170 -79.3970 251° West 480 552 36,000  Level FlightAware
11:16AM 42.0850 -79.5210 251° West 479 551 36,000  Level FlightAware
11:16AM 42.0570 -79.6300 251° West 480 552 36,000  Level FlightAware
11:17AM 42.0260 -79.7480 251° West 480 552 36,000  Level FlightAware
11:18AM 41.9930 -79.8710 250° West 479 551 36,000  Level FlightAware
11:18AM 41.9630 -79.9850 251° West 478 550 36,000  Level FlightAware
11:19AM 41.9330 -80.0990 251° West 477 549 36,000  Level FlightAware
11:20AM 41.8990 -80.2230 250° West 475 547 36,000  Level FlightAware
11:20AM 41.8700 -80.3320 250° West 474 545 36,000  Level FlightAware
11:21AM 41.8370 -80.4550 250° West 472 543 36,000  Level FlightAware
11:22AM 41.8070 -80.5650 250° West 472 543 36,000  Level FlightAware
11:23AM 41.7720 -80.6910 250° West 472 543 36,000  Level FlightAware
11:23AM 41.7440 -80.7960 250° West 471 542 36,000  Level FlightAware
11:24AM 41.7130 -80.9080 250° West 468 539 36,000  Level FlightAware
11:25AM 41.6780 -81.0330 249° West 466 536 36,000  Level FlightAware
11:25AM 41.6490 -81.1390 250° West 467 537 36,000  Level FlightAware
11:26AM 41.6150 -81.2590 249° West 467 537 36,000  Level FlightAware
11:27AM 41.5820 -81.3780 250° West 468 539 36,000  Level FlightAware
11:27AM 41.5510 -81.4870 249° West 468 539 36,000  Level FlightAware
11:28AM 41.5160 -81.6100 249° West 468 539 36,000  Level FlightAware
11:29AM 41.4860 -81.7170 250° West 467 537 36,000  Level FlightAware
11:30AM 41.4520 -81.8370 249° West 466 536 36,000  Level FlightAware
11:30AM 41.4240 -81.9350 249° West 465 535 36,000  Level FlightAware
11:31AM 41.3910 -82.0490 249° West 465 535 36,000  Level FlightAware
11:32AM 41.3520 -82.1680 246° West 464 534 36,000  Level FlightAware
11:32AM 41.3050 -82.2580 235° Southwest 465 535 36,000  Level FlightAware
11:33AM 41.2470 -82.3620 233° Southwest 466 536 36,000  Level FlightAware
11:34AM 41.1950 -82.4560 234° Southwest 466 536 36,000  Level FlightAware
11:34AM 41.1490 -82.5380 233° Southwest 463 533 36,000  Level FlightAware
11:35AM 41.0860 -82.6510 234° Southwest 462 532 36,000  Level FlightAware
11:36AM 41.0370 -82.7390 234° Southwest 463 533 36,000  Level FlightAware
11:37AM 40.9810 -82.8390 233° Southwest 461 531 36,000  Level FlightAware
11:37AM 40.9260 -82.9360 233° Southwest 460 529 36,000  Level FlightAware
11:38AM 40.8840 -83.0100 233° Southwest 459 528 36,000  Level FlightAware
11:39AM 40.8180 -83.1260 233° Southwest 460 529 36,000  Level FlightAware
11:39AM 40.7680 -83.2130 233° Southwest 462 532 36,000  Level FlightAware
11:40AM 40.7090 -83.3160 233° Southwest 461 531 36,000  Level FlightAware
11:41AM 40.6590 -83.4040 233° Southwest 462 532 36,000  Level FlightAware
11:41AM 40.6060 -83.4960 233° Southwest 460 529 36,000  Level FlightAware
11:42AM 40.5470 -83.5970 232° Southwest 459 528 36,000  Level FlightAware
11:43AM 40.4990 -83.6810 233° Southwest 456 525 36,000  Level FlightAware
11:44AM 40.4400 -83.7830 233° Southwest 453 521 36,000  Level FlightAware
11:44AM 40.3890 -83.8710 233° Southwest 453 521 36,000  Level FlightAware
11:45AM 40.3400 -83.9530 232° Southwest 453 521 36,000  Level FlightAware
11:46AM 40.2810 -84.0540 233° Southwest 455 524 36,000  Level FlightAware
11:46AM 40.2280 -84.1370 230° Southwest 455 524 36,000  Level FlightAware
11:47AM 40.1540 -84.2500 229° Southwest 454 522 36,000  Level FlightAware
11:48AM 40.0930 -84.3440 230° Southwest 453 521 36,000  Level FlightAware
11:49AM 40.0380 -84.4290 230° Southwest 454 522 36,000  Level FlightAware
11:50AM 39.9610 -84.5470 230° Southwest 453 521 36,000  Level FlightAware
11:50AM 39.9020 -84.6380 230° Southwest 454 522 36,000  Level FlightAware
11:51AM 39.8480 -84.7130 227° Southwest 453 521 36,000  Level FlightAware
11:52AM 39.7860 -84.7970 226° Southwest 453 521 36,000  Level FlightAware
11:52AM 39.7230 -84.8850 227° Southwest 453 521 36,000  Level FlightAware
11:53AM 39.6650 -84.9650 227° Southwest 454 522 36,000  Level FlightAware
11:54AM 39.6010 -85.0540 227° Southwest 455 524 36,000  Level FlightAware
11:55AM 39.5430 -85.1340 227° Southwest 455 524 36,000  Level FlightAware
11:55AM 39.4860 -85.2160 228° Southwest 455 524 36,000  Level FlightAware
11:56AM 39.4210 -85.3090 228° Southwest 456 525 36,000  Level FlightAware
11:57AM 39.3590 -85.3980 228° Southwest 458 527 36,000  Level FlightAware
11:57AM 39.3000 -85.4720 224° Southwest 455 524 36,000  Level FlightAware
11:58AM 39.2330 -85.5400 218° Southwest 455 524 36,000  Level FlightAware
11:59AM 39.1600 -85.6140 218° Southwest 455 524 36,000  Level FlightAware
11:59AM 39.0910 -85.6830 218° Southwest 454 522 36,000  Level FlightAware
12:00PM 39.0180 -85.7570 218° Southwest 455 524 36,000  Level FlightAware
12:01PM 38.9520 -85.8240 218° Southwest 455 524 36,000  Level FlightAware
12:02PM 38.8840 -85.8930 218° Southwest 455 524 36,000  Level FlightAware
12:02PM 38.8100 -85.9690 219° Southwest 455 524 36,000  Level FlightAware
12:03PM 38.7450 -86.0370 219° Southwest 453 521 36,000  Level FlightAware
12:04PM 38.6740 -86.1130 220° Southwest 451 519 36,000  Level FlightAware
12:04PM 38.6380 -86.1650 228° Southwest 460 529 36,000  Level FlightAware
12:05PM 38.5940 -86.2690 242° Southwest 466 536 36,000  Level FlightAware
12:06PM 38.5550 -86.3700 244° Southwest 469 540 36,000  Level FlightAware
12:06PM 38.5200 -86.4710 246° West 470 541 36,000  Level FlightAware
12:07PM 38.4800 -86.5840 246° West 470 541 36,000  Level FlightAware
12:08PM 38.4470 -86.6770 246° West 471 542 36,000  Level FlightAware
12:08PM 38.4060 -86.7940 246° West 472 543 36,000  Level FlightAware
12:09PM 38.3670 -86.9020 245° Southwest 472 543 36,000  Level FlightAware
12:10PM 38.3320 -87.0000 246° West 472 543 36,000  Level FlightAware
12:10PM 38.2910 -87.1130 245° Southwest 472 543 36,000  Level FlightAware
12:11PM 38.2530 -87.2190 245° Southwest 471 542 36,000  Level FlightAware
12:12PM 38.2120 -87.3300 245° Southwest 469 540 36,000  Level FlightAware
12:13PM 38.1750 -87.4330 245° Southwest 471 542 36,000  Level FlightAware
12:13PM 38.1390 -87.5310 245° Southwest 472 543 36,000  Level FlightAware
12:14PM 38.1030 -87.6300 245° Southwest 472 543 36,000  Level FlightAware
12:15PM 38.0610 -87.7450 245° Southwest 472 543 36,000  Level FlightAware
12:15PM 38.0200 -87.8550 245° Southwest 470 541 36,000  Level FlightAware
12:16PM 37.9960 -87.9190 245° Southwest 469 540 36,000  Level FlightAware
12:16PM 37.9600 -88.0170 245° Southwest 468 539 36,000  Level FlightAware
12:17PM 37.9180 -88.1310 245° Southwest 468 539 36,000  Level FlightAware
12:18PM 37.8810 -88.2290 244° Southwest 470 541 36,000  Level FlightAware
12:19PM 37.8400 -88.3370 244° Southwest 471 542 36,000  Level FlightAware
12:19PM 37.8020 -88.4390 245° Southwest 473 544 36,000  Level FlightAware
12:20PM 37.7650 -88.5370 244° Southwest 470 541 36,000  Level FlightAware
12:21PM 37.7220 -88.6510 245° Southwest 467 537 36,000  Level FlightAware
12:21PM 37.6850 -88.7470 244° Southwest 469 540 36,000  Level FlightAware
12:22PM 37.6430 -88.8580 244° Southwest 470 541 36,000  Level FlightAware
12:23PM 37.6180 -88.9250 245° Southwest 470 541 36,000  Level FlightAware
12:24PM 37.5700 -89.0480 244° Southwest 470 541 36,000  Level FlightAware
12:24PM 37.5340 -89.1410 244° Southwest 467 537 36,000  Level FlightAware
12:25PM 37.4970 -89.2370 244° Southwest 467 537 36,000  Level FlightAware
12:26PM 37.4570 -89.3410 244° Southwest 467 537 36,000  Level FlightAware
12:26PM 37.4250 -89.4240 244° Southwest 467 537 36,000  Level FlightAware
12:27PM 37.3930 -89.5070 244° Southwest 467 537 36,000  Level FlightAware
12:28PM 37.3600 -89.5900 243° Southwest 467 537 36,000  Level FlightAware
12:28PM 37.3280 -89.6730 244° Southwest 467 537 36,000  Level FlightAware
12:29PM 37.2880 -89.7770 244° Southwest 467 537 36,000  Level FlightAware
12:30PM 37.2560 -89.8600 244° Southwest 467 537 36,000  Level FlightAware
12:30PM 37.2230 -89.9430 243° Southwest 467 537 36,000  Level FlightAware
12:31PM 37.1910 -90.0260 244° Southwest 467 537 36,000  Level FlightAware
12:32PM 37.1590 -90.1090 244° Southwest 467 537 36,000  Level FlightAware
12:32PM 37.1270 -90.1920 244° Southwest 467 537 36,000  Level FlightAware
12:33PM 37.0870 -90.2950 244° Southwest 467 537 36,000  Level FlightAware
12:34PM 37.0540 -90.3780 244° Southwest 467 537 36,000  Level FlightAware
12:35PM 36.9344 -90.6608 244° Southwest 475 547 36,000  Level Kansas City Center
12:36PM 36.8625 -90.8369 243° Southwest 476 548 36,000  Level Kansas City Center
12:37PM 36.8011 -90.9944 244° Southwest 469 540 36,000  Level Memphis Center
12:38PM 36.7461 -91.1181 241° Southwest 469 540 36,000  Level Memphis Center
12:39PM 36.6869 -91.2678 244° Southwest 469 540 36,000  Level Memphis Center
12:40PM 36.6253 -91.4119 242° Southwest 474 545 36,000  Level Memphis Center
12:41PM 36.5656 -91.5583 243° Southwest 474 545 36,000  Level Memphis Center
12:42PM 36.4994 -91.7175 243° Southwest 469 540 36,000  Level Memphis Center
12:43PM 36.4458 -91.8456 243° Southwest 469 540 36,000  Level Memphis Center
12:44PM 36.3836 -91.9939 243° Southwest 469 540 36,000  Level Memphis Center
12:45PM 36.3211 -92.1419 242° Southwest 475 547 36,000  Level Memphis Center
12:46PM 36.2606 -92.2875 243° Southwest 475 547 36,000  Level Memphis Center
12:47PM 36.1936 -92.4325 240° Southwest 480 552 36,000  Level Memphis Center
12:48PM 36.1325 -92.5825 243° Southwest 480 552 36,000  Level Memphis Center
12:49PM 36.0694 -92.7297 242° Southwest 485 558 36,000  Level Memphis Center
12:50PM 36.0083 -92.8692 242° Southwest 485 558 36,000  Level Memphis Center
12:51PM 35.9447 -93.0158 242° Southwest 485 558 36,000  Level Memphis Center
12:52PM 35.8833 -93.1572 242° Southwest 480 552 36,000  Level Memphis Center
12:53PM 35.8128 -93.3161 241° Southwest 480 552 36,000  Level Memphis Center
12:54PM 35.7511 -93.4572 242° Southwest 480 552 36,000  Level Memphis Center
12:55PM 35.6892 -93.6006 242° Southwest 480 552 36,000  Level Memphis Center
12:56PM 35.6269 -93.7411 241° Southwest 470 541 36,000  Level Memphis Center
12:57PM 35.5625 -93.8842 241° Southwest 470 541 36,000  Level Memphis Center
12:58PM 35.4978 -94.0267 241° Southwest 476 548 36,000  Level Memphis Center
12:59PM 35.4331 -94.1692 241° Southwest 476 548 36,000  Level Memphis Center
01:05PM 34.8740 -94.8290 241° Southwest 483 556 36,000  Level FlightAware
01:05PM 34.8200 -94.8870 221° Southwest 483 556 36,000  Level FlightAware
01:06PM 34.7480 -94.9620 221° Southwest 483 556 36,000 -60 Level FlightAware
01:07PM 34.6400 -95.0790 222° Southwest 483 556 35,900 -720 Descending FlightAware
01:07PM 34.5770 -95.1460 221° Southwest 486 559 35,000 -1,320 Descending FlightAware
01:08PM 34.5100 -95.2180 222° Southwest 487 560 34,300 -660 Descending FlightAware
01:09PM 34.4050 -95.3290 221° Southwest 481 554 33,900 -240 Descending FlightAware
01:10PM 34.3480 -95.3890 221° Southwest 481 554 33,900 -2,340 Level FlightAware
01:11PM 34.2640 -95.4780 221° Southwest 463 533 30,600 -3,000 Descending FlightAware
01:11PM 34.2030 -95.5420 221° Southwest 456 525 29,700 -960 Descending FlightAware
01:12PM 34.1350 -95.6140 221° Southwest 452 520 29,300 -1,320 Descending FlightAware
01:13PM 34.0770 -95.6740 221° Southwest 439 505 28,000 -2,040 Descending FlightAware
01:13PM 34.0190 -95.7350 221° Southwest 438 504 26,800 -1,800 Descending FlightAware
01:14PM 33.9390 -95.8190 221° Southwest 428 493 25,300 -1,740 Descending FlightAware
01:15PM 33.8800 -95.8800 221° Southwest 424 488 24,200 -1,740 Descending FlightAware
01:15PM 33.8200 -95.9420 221° Southwest 419 482 23,000 -1,740 Descending FlightAware
01:16PM 33.7550 -96.0100 221° Southwest 414 476 21,800 -1,560 Descending FlightAware
01:17PM 33.6970 -96.0700 221° Southwest 409 471 20,800 -1,500 Descending FlightAware
01:18PM 33.6320 -96.1370 221° Southwest 404 465 19,700 -1,500 Descending FlightAware
01:18PM 33.5780 -96.1920 220° Southwest 397 457 18,700 -1,920 Descending FlightAware
01:19PM 33.5240 -96.2500 222° Southwest 389 448 17,200 -2,220 Descending FlightAware
01:20PM 33.4680 -96.3170 225° Southwest 384 442 15,600 -2,220 Descending FlightAware
01:20PM 33.4160 -96.3800 225° Southwest 381 438 14,100 -1,980 Descending FlightAware
01:21PM 33.3610 -96.4450 225° Southwest 373 429 12,800 -1,680 Descending FlightAware
01:22PM 33.3110 -96.5040 225° Southwest 369 425 11,800 -1,440 Descending FlightAware
01:22PM 33.2630 -96.5610 225° Southwest 366 421 10,900 -780 Descending FlightAware
01:23PM 33.2090 -96.6240 224° Southwest 372 428 10,700 -180 Descending FlightAware
01:24PM 33.1530 -96.6910 225° Southwest 361 415 10,700  Level FlightAware
01:25PM 33.1070 -96.7450 225° Southwest 366 421 10,700  Level FlightAware
01:25PM 33.0530 -96.8090 225° Southwest 352 405 10,700  Level FlightAware
01:26PM 33.0150 -96.8530 224° Southwest 317 365 10,700  Level FlightAware
01:27PM 32.9660 -96.8990 218° Southwest 291 335 10,700  Level FlightAware
01:27PM 32.9460 -96.9030 190° South 293 337 10,700 -1,200 Level FlightAware
01:28PM 32.8920 -96.9050 182° South 291 335 9,600 -1,920 Descending FlightAware
01:28PM 32.8510 -96.9050 180° South 287 330 8,500 -2,160 Descending FlightAware
01:28PM 32.8320 -96.9060 183° South 283 326 8,000 -1,620 Descending FlightAware
01:29PM 32.7940 -96.9070 181° South 261 300 7,300 -1,680 Descending FlightAware
01:29PM 32.7650 -96.9090 183° South 244 281 6,500 -2,100 Descending FlightAware
01:30PM 32.7320 -96.9170 192° South 233 268 5,400 -1,860 Descending FlightAware
01:30PM 32.7080 -96.9240 194° South 215 247 4,800 -1,500 Descending FlightAware
01:30PM 32.6980 -96.9350 223° Southwest 203 234 4,400 -1,800 Descending FlightAware
01:31PM 32.6950 -96.9520 258° West 197 227 3,900 -780 Descending FlightAware
01:31PM 32.7040 -96.9890 286° West 184 212 3,700 -480 Descending FlightAware
01:32PM 32.7260 -97.0040 330° Northwest 168 193 3,400 -840 Descending FlightAware
01:32PM 32.7460 -97.0160 333° Northwest 168 193 2,900 -840 Descending FlightAware
01:33PM 32.7610 -97.0240 336° Northwest 166 191 2,700 -780 Descending FlightAware
01:33PM 32.7770 -97.0260 354° North 165 190 2,400 -900 Descending FlightAware
01:34PM 32.8020 -97.0260 360° North 166 191 1,900 -540 Descending FlightAware
01:34PM 32.8200 -97.0260 360° North 166 191 1,900 -900 Level FlightAware
01:35PM 32.8390 -97.0260 360° North 140 161 1,100 -900 Descending FlightAware
01:35PM 32.8540 -97.0260 360° North 140 161 1,100  Level FlightAware